Other Public Products
Issued by NWS Grand Forks, ND

Home | Current Version | Previous Version | Text Only | Print | Product List | Glossary On
Versions: 1 2 3 4 5 6 7 8 9 10 11 12 13 14 15 16 17 18 19 20 21 22 23 24 25 26 27 28 29 30 31 32 33 34 35 36 37 38 39 40 41 42 43 44 45 46 47 48 49 50
000
FPUS83 KFGF 281110
OPUFGF
PRAIRIE TO PINES WEATHER ROUNDUP
NATIONAL WEATHER SERVICE EASTERN NORTH DAKOTA/GRAND FORKS ND
600 AM CDT TUE MAR 28 2017

 **SATELLITE DATA USED TO AUGMENT SKY COVER AT AUTOMATED STATIONS**
 *****  WEATHER ACROSS EASTERN NORTH DAKOTA  *****

CITY           SKY/WX    TMP DP  RH WIND       PRES   REMARKS
GRAND FORKS    CLOUDY    33  32  96 N8        30.12R
GRAND FORKS AF CLOUDY    33  32  99 N8        30.12S
GRAND CITY NWS NOT AVBL
BUXTON         NOT AVBL
DEVILS LAKE    MOCLDY    33  31  92 NE6       30.12R
FARGO          FOG       32  32 100 N6        30.10R VSB 1/4
WAHPETON ARPT    N/A     32  30  93 N7        30.11R VSB 1/4
$$

 *****  WEATHER ACROSS CENTRAL AND WESTERN NORTH DAKOTA  *****

CITY           SKY/WX    TMP DP  RH WIND       PRES   REMARKS
JAMESTOWN      FOG       31  31 100 CALM      30.10R VSB 1/4
BISMARCK       FAIR      33  30  88 NE7       30.06R
MINOT          CLOUDY    35  33  92 E12       30.08S
MINOT AFB      NOT AVBL
GARRISON         N/A     34  33  96 E12       30.05R
WILLISTON      CLOUDY    37  35  92 E9        30.03S
DICKINSON      FAIR      30  27  88 E3        29.99R
HETTINGER      FAIR      29  27  92 CALM      30.01S
$$

 *****  OTHER OBSERVATIONS NORTHEAST NORTH DAKOTA  *****

CITY           SKY/WX    TMP DP  RH WIND       PRES   REMARKS
WALHALLA       NOT AVBL
LANGDON        CLOUDY    32  30  93 NE10      30.13R WCI  24
CAVALIER       FAIR      32  30  93 N9        30.15S WCI  24
GRAFTON        FAIR      32  32 100 N8        30.15S WCI  25
CANDO          NOT AVBL
FORT TOTTEN      N/A     32  32 100 N5        29.95S
ROLLA          CLOUDY    32  32 100 NE9       30.13S WCI  24
RUGBY          NOT AVBL
 ***** THE ABOVE OBSERVATIONS ARE NON NWS ARE NOT QUALITY
        CONTROLLED AND MAY MIS-REPORT RAIN FOR SNOW...
$$

 *****  OTHER OBSERVATIONS SOUTHEAST NORTH DAKOTA *****

CITY           SKY/WX    TMP DP  RH WIND       PRES   REMARKS
COOPERSTOWN    FAIR      32  32 100 CALM      30.11R
VALLEY CITY    MIX PCPN  28  28 100 CALM      30.11R
OAKES          NOT AVBL
GWINNER        FOG       32  32 100 MISG      30.09S VSB 0
SHEYENNE NWR     N/A     32  32 100 CALM      29.95S
BUFFALO        NOT AVBL
WYNDMERE       NOT AVBL
 ***** THE ABOVE OBSERVATIONS ARE NON NWS ARE NOT QUALITY
       CONTROLLED AND MAY MIS-REPORT RAIN FOR SNOW...
$$

  *****  WEATHER ACROSS NORTHERN MINNESOTA  *****

CITY           SKY/WX    TMP DP  RH WIND       PRES   REMARKS
FLAG ISLAND    FAIR      32  27  80 N7        30.14R
WARROAD        FAIR      34  28  80 N6        30.14R
ROSEAU         FAIR      32  27  80 NE5       30.13S
HALLOCK        FAIR      32  30  93 N5        30.14R
THF RVR FALLS  CLOUDY   N/A N/A N/A NE8       30.12R
HALSTAD          N/A     30  30 100 CALM        N/A
FOSSTON        MOCLDY    32  30  93 CALM      30.09S
BAUDETTE       FAIR      33  27  78 N3        30.12R
WASKISH        FAIR      30  28  93 CALM      30.10R
CROOKSTON      CLOUDY    34  34 100 NE3       30.11S
$$
  *****  WEATHER ACROSS CENTRAL AND WEST MINNESOTA  *****

CITY           SKY/WX    TMP DP  RH WIND       PRES   REMARKS
BEMIDJI        FAIR      29  26  89 CALM      30.08R
PARK RAPIDS    FAIR      31  24  75 CALM      30.07S
WADENA         FAIR      27  25  93 CALM      30.07S FOG
DETROIT LAKES  FAIR      32  32 100 CALM      30.08S
MOORHEAD       FOG       30  30 100 N6        30.11R VSB 1/4 WCI  24
FERGUS FALLS   FAIR      34  34 100 CALM      30.12R FOG
ELBOW LAKE     FAIR      32  31  97 CALM      30.08R
MORRIS MN      FAIR      34  30  86 CALM      30.07R
STAPLES        FAIR      27  27 100 CALM      30.08R
WHEATON        FOG       28  28 100 NW6       30.11R VSB 1/4 WCI  22
$$
  *****  WEATHER ELSEWHERE ACROSS MINNESOTA  *****

CITY           SKY/WX    TMP DP  RH WIND       PRES   REMARKS
DULUTH         FAIR      26  23  88 CALM      30.08S
INTRNTL FALLS  FAIR      35  27  72 NE7       30.10R
ELY            MOCLDY    28  27  93 CALM      30.09R
CLOQUET        FAIR      25  25 100 CALM      30.08S
BRAINERD       FAIR      27  25  92 CALM      30.08R
HIBBING        FAIR      23  23 100 CALM      30.08R
ALEXANDRIA     FAIR      33  31  92 CALM      30.07R
SAINT CLOUD    FAIR      29  28  96 CALM      30.09R
MINNEAPOLIS    FAIR      36  33  89 NW3       30.09R
$$

  *****  WEATHER ACROSS SOUTH DAKOTA  *****

CITY           SKY/WX    TMP DP  RH WIND       PRES   REMARKS
SIOUX FALLS    FOG       29  29 100 NE3       30.07R VSB 3/4
BROOKINGS      CLOUDY    34  33  96 CALM      30.07R FOG
WATERTOWN      FAIR      30  29  96 CALM      30.07R
HURON          FAIR      33  33 100 E6        30.05S
SISSETON         N/A     32  32 100 NW6       30.08R
ABERDEEN       FAIR      29  32 100 NE5       30.07S WCI  24
MITCHELL       FAIR      35  35 100 SE6       30.05S
PIERRE         MOCLDY    39  34  82 E7        29.99R
MOBRIDGE       FAIR      40  30  67 E9        30.00S
RAPID CITY     FAIR      41  33  73 N9        29.93S
$$

  *****  SOME WEATHER IN NEARBY STATES *****

CITY           SKY/WX    TMP DP  RH WIND       PRES   REMARKS
GLASGOW MT     FAIR      34  31  88 E7        30.01R
GREAT FALLS MT FAIR      30  24  78 SW10      30.08R WCI  21
CHEYENNE WY    CLOUDY    38  36  92 N15       29.86S
SCOTTSBLUFF NE RAIN      46  43  89 E13       29.88S FOG
OMAHA NE       CLOUDY    39  35  86 NW6       30.06R
DES MOINES IA  CLOUDY    48  41  76 N3        30.06R
DAVENPORT IA   CLOUDY    47  44  90 N3        30.05R
CHICAGO IL     CLOUDY    42  35  76 NE13      30.04R
EAU CLAIRE WI  FOG       28  28 100 CALM      30.09R VSB 1/2
LA CROSSE WI   FAIR      35  33  92 CALM      30.09R FOG
$$

  *****  SOME NATIONAL WEATHER *****

CITY           SKY/WX    TMP DP  RH WIND       PRES   REMARKS
LA GUARDIA NY  CLOUDY    43  39  86 NE9       29.95S FOG
RALEIGH NC     MOCLDY    64  55  72 SW13      29.95R
ATLANTA GA     CLOUDY    62  61  96 SW5       29.96F
NEW ORLEANS LA FAIR      68  68 100 CALM      29.96R
OKLAHOMA CITY  FAIR      48  46  93 E8        29.94R
ALBUQUERQUE NM MOCLDY    48  36  63 NW7       29.81F
SALT LAKE CITY MOCLDY    39  32  76 NW13      30.04R
LOS ANGELES CA FAIR      59  43  55 N15G23    30.00R
BOISE ID       FAIR      36  31  82 W5        30.23R
SEATTLE WA     CLOUDY    45  42  89 S10       30.22F
$$

*** WEATHER ACROSS MANITOBA...SASKATCHEWAN AND ONTARIO ***
                ***ONTARIO***

CITY           SKY/WX    TMP DP  RH WIND       PRES   REMARKS
GERALDTON      PTCLDY    25  23  93 N5        30.12R WCI  19
THUNDER BAY    PTCLDY    28  27  93 SW6       30.10R WCI  22
SIOUX LOOKOUT  PTCLDY    25  21  86 VRB3      30.15R
TORONTO        CLOUDY    41  39  93 N14G20    29.92R
BIG TROUT LK   FLURRIES  14  10  85 N6        30.27R WCI   5
PICKLE LAKE    MOCLDY    16  12  86 NW6       30.20  WCI   7
DRYDEN         CLEAR     28  23  80 NE10      30.14R WCI  19
KENORA         MOCLDY    28  23  80 NE8       30.14R WCI  20
$$
                *** MANITOBA***

CITY           SKY/WX    TMP DP  RH WIND       PRES   REMARKS
BRANDON        CLOUDY    28  25  86 E15       30.17F WCI  17
DAUPHIN        PTCLDY    27  23  86 NE6       30.23R WCI  20
ISLAND LAKE    CLEAR      9   5  85 VRB2      30.31R
PILOT MOUND      N/A     30  27  86 NE6         N/A  WCI  24
THE PAS        CLEAR     16  12  86 SE6       30.28R WCI   7
THOMPSON       CLEAR      5   1  85 NE8       30.35S WCI  -8
WINNIPEG       MOCLDY    30  25  80 NE9       30.20R WCI  22
LYNN LAKE      CLOUDY     3   1  92 SE5       30.28S FOG     WCI  -6
CHURCHILL      FOG       -9 -13  84 NW10      30.45R VSB 1/2 WCI -28
GILLAM         FLURRIES   0  -4  85 NE8       30.38F WCI -15
$$
                ***SASKATCHEWAN***

CITY           SKY/WX    TMP DP  RH WIND       PRES   REMARKS
ESTEVAN        CLOUDY    32  32 100 E15       30.07R WCI  22
KINDERSLEY     MOCLDY    39  37  93 SE12      29.95S
LLOYDMINSTER   CLOUDY    32  32 100 SE12      29.96S FOG     WCI  23
PRINCE ALBERT  CLOUDY    30  27  86 E9        30.12R WCI  22
REGINA         MOCLDY    32  30  93 E9        30.07S WCI  24
YORKTON        CLOUDY    30  27  86 E7        30.15R WC


USA.gov is the U.S. government's official web portal to all federal, state and local government web resources and services.